Regional Weather Roundup
Issued by NWS State College, PA

Home | Current Version | Previous Version | Text Only | Print | Product List | Glossary On
Versions: 1 2 3 4 5 6 7 8 9 10 11 12 13 14 15 16 17 18 19 20 21 22 23 24 25 26 27 28 29 30 31 32 33 34 35 36 37 38 39 40 41 42 43 44 45 46 47 48 49 50
000
ASUS41 KCTP 050303
RWRCTP

REGIONAL WEATHER ROUNDUP
NATIONAL WEATHER SERVICE STATE COLLEGE PA
1100 PM EDT WED MAY 04 2016

Note: "fair" indicates few or no clouds below 12,000 feet with no
significant weather and/or obstructions to visibility.

* = STATION THAT DOES NOT REPORT PRECIPITATION /E.G. RAIN...SNOW...ETC/
    THUNDER OR FOG.

PAZ002>004-007>009-013>016-020>023-029>032-050400-
WESTERN PENNSYLVANIA

CITY           SKY/WX    TMP DP  RH WIND       PRES   REMARKS
ERIE           CLOUDY    54  44  69 NE8       29.67S
MEADVILLE      CLOUDY    50  42  74 SW8       29.67R
FRANKLIN*        N/A     52  41  66 SW8       29.70R
NEW CASTLE     CLOUDY    50  45  83 CALM      29.70S
BEAVER COUNTY  NOT AVBL
BUTLER*        CLOUDY    50  43  76 W5        29.72S
PITTSBURGH INT CLOUDY    50  45  83 NW3       29.68R
PITTSBURGH     MOCLDY    49  44  83 W7        29.68S
INDIANA*       CLOUDY    52  52 100 CALM      29.73S
LATROBE        CLOUDY    52  52 100 S3        29.70S
WASHINGTON CO* CLOUDY    48  46  93 SW3       29.70S
$$

PAZ004>006-010>012-017>019-024>028-033>037-041-042-045-046-049>053-050400-
CENTRAL PENNSYLVANIA

CITY           SKY/WX    TMP DP  RH WIND       PRES   REMARKS
BRADFORD       CLOUDY    46  42  86 SE3       29.70R
DUBOIS         CLOUDY    50  44  80 SE6       29.69R
CLEARFIELD     CLOUDY    50  46  86 NE5       29.70S
JOHNSTOWN      CLOUDY    49  42  77 E3        29.68S
ALTOONA        CLOUDY    52  48  86 E5        29.69F
STATE COLLEGE  CLOUDY    52  49  90 CALM      29.70F
WILLIAMSPORT   CLOUDY    53  47  79 E9        29.71F
SELINSGROVE    CLOUDY    53  47  79 E3        29.73F
FT INDIANTOWN  NOT AVBL
CAPITAL CITY   LGT RAIN  52  49  89 E7        29.72S FOG
HARRISBURG     DRIZZLE   51  48  89 E10       29.72S FOG
YORK           CLOUDY    51  48  89 E6        29.71S
$$

PAZ038>040-043-044-047-048-054-055-060>062-067>071-050400-
EASTERN PENNSYLVANIA

CITY           SKY/WX    TMP DP  RH WIND       PRES   REMARKS
SCRANTON       CLOUDY    49  44  83 CALM      29.73F
MOUNT POCONO   CLOUDY    41  41 100 E10       29.72F
ALLENTOWN      CLOUDY    50  46  86 NE7       29.73F FOG
QUAKERTOWN*    CLOUDY    48  46  93 NE5       29.74F
READING        CLOUDY    50  45  83 NE3       29.72F
LANCASTER      CLOUDY    49  46  90 E7        29.72F
COATESVILLE    CLOUDY    48  48 100 NE3       29.73S
POTTSTOWN      CLOUDY    48  47  96 NE5       29.74F FOG
BLUE BELL      CLOUDY    46  46 100 CALM      29.72F
DOYLESTOWN     CLOUDY    47  46  97 NE7       29.72F
WILLOW GROVE   NOT AVBL
NORTH PHILA    CLOUDY    51  48  89 NE7       29.74F FOG
PHILADELPHIA   CLOUDY    51  46  83 NE8       29.73F
$$



USA.gov is the U.S. government's official web portal to all federal, state and local government web resources and services.